M7ANY Weather Reports


time (UTC)temp
C
wind
direction
speed
KPH
gust
KPH
rain 1hr
cm
rain 24hr
cm
rain mn
cm
humidity
%
barometer
mb
20260510211004 7 0 0.0 0.0 0.00 0.00 0.00 69 1014.6
20260510210716 7 0 0.0 0.0 0.00 0.00 0.00 68 1014.6
20260510210004 7 0 0.0 0.0 0.00 0.00 0.00 68 1014.7
20260510205503 7 0 0.0 0.0 0.00 0.00 0.00 67 1014.7
20260510205004 7 0 0.0 0.0 0.00 0.00 0.00 67 1014.7
20260510204504 7 0 0.0 0.0 0.00 0.00 0.00 66 1014.7
20260510204004 7 0 0.0 0.0 0.00 0.00 0.00 66 1014.8
20260510203714 7 0 0.0 0.0 0.00 0.00 0.00 66 1014.8
20260510203003 7 0 0.0 0.0 0.00 0.00 0.00 65 1014.8
20260510202504 8 0 0.0 0.0 0.00 0.00 0.00 64 1014.9
20260510202003 8 0 0.0 0.0 0.00 0.00 0.00 63 1014.9
20260510201716 8 0 0.0 0.0 0.00 0.00 0.00 63 1014.9
20260510201003 8 0 0.0 0.0 0.00 0.00 0.00 62 1015.0
20260510200503 8 0 0.0 0.0 0.00 0.00 0.00 62 1015.1
20260510200004 8 0 0.0 0.0 0.00 0.00 0.00 61 1015.1
20260510195503 9 136 0.0 4.8 0.00 0.00 0.00 59 1015.2
20260510195216 9 138 1.6 4.8 0.00 0.00 0.00 59 1015.2
20260510194504 9 120 3.2 6.4 0.00 0.00 0.00 58 1015.1
20260510194004 9 110 3.2 6.4 0.00 0.00 0.00 58 1015.2
20260510193504 10 113 3.2 6.4 0.00 0.00 0.00 57 1015.2
20260510193004 10 126 3.2 6.4 0.00 0.00 0.00 57 1015.3
20260510192504 10 120 3.2 11.3 0.00 0.00 0.00 56 1015.3
20260510192003 10 105 4.8 12.9 0.00 0.00 0.00 55 1015.3
20260510191505 10 104 4.8 12.9 0.00 0.00 0.00 55 1015.4
20260510191003 10 105 4.8 12.9 0.00 0.00 0.00 55 1015.5
20260510190717 10 102 4.8 12.9 0.00 0.00 0.00 54 1015.5
20260510190215 10 101 6.4 12.9 0.00 0.00 0.00 54 1015.6
20260510185504 10 98 6.4 12.9 0.00 0.00 0.00 53 1015.5
20260510185216 10 98 6.4 12.9 0.00 0.00 0.00 53 1015.6
20260510184504 11 105 6.4 14.5 0.00 0.00 0.00 53 1015.6
20260510184217 11 105 6.4 14.5 0.00 0.00 0.00 54 1015.7
20260510183504 11 94 8.0 16.1 0.00 0.00 0.00 53 1015.7
20260510183003 11 86 8.0 16.1 0.00 0.00 0.00 52 1015.7
20260510182503 11 81 8.0 16.1 0.00 0.00 0.00 53 1015.8
20260510182003 11 80 8.0 17.7 0.00 0.00 0.00 52 1015.8
20260510181717 11 87 8.0 17.7 0.00 0.00 0.00 52 1015.8
20260510181003 12 77 8.0 17.7 0.00 0.00 0.00 51 1015.8
20260510180504 12 66 9.7 20.9 0.00 0.00 0.00 51 1015.9
20260510180216 12 66 11.3 20.9 0.00 0.00 0.00 50 1015.9
20260510175503 12 51 8.0 19.3 0.00 0.00 0.00 50 1015.9
20260510175217 12 55 8.0 17.7 0.00 0.00 0.00 49 1016.0
20260510174504 12 81 6.4 17.7 0.00 0.00 0.00 50 1016.0
20260510174004 12 62 4.8 12.9 0.00 0.00 0.00 48 1016.1
20260510173504 12 40 4.8 12.9 0.00 0.00 0.00 49 1016.2
20260510173003 12 30 4.8 12.9 0.00 0.00 0.00 50 1016.2
20260510172720 12 29 4.8 12.9 0.00 0.00 0.00 49 1016.3
20260510172215 12 26 6.4 17.7 0.00 0.00 0.00 49 1016.3
20260510171504 12 37 4.8 16.1 0.00 0.00 0.00 48 1016.3
20260510171004 12 48 6.4 11.3 0.00 0.00 0.00 49 1016.4
20260510170714 12 39 6.4 16.1 0.00 0.00 0.00 48 1016.4
20260510170003 13 30 8.0 16.1 0.00 0.00 0.00 47 1016.5
20260510165503 13 24 6.4 16.1 0.00 0.00 0.00 48 1016.5
20260510165005 13 17 6.4 17.7 0.00 0.00 0.00 48 1016.5
20260510164503 13 31 6.4 17.7 0.00 0.00 0.00 46 1016.6
20260510164004 13 37 8.0 17.7 0.00 0.00 0.00 46 1016.8
20260510163716 13 34 9.7 17.7 0.00 0.00 0.00 46 1016.8
20260510163003 13 47 9.7 20.9 0.00 0.00 0.00 46 1016.9
20260510162503 13 44 9.7 20.9 0.00 0.00 0.00 47 1017.0
20260510162004 13 44 8.0 20.9 0.00 0.00 0.00 46 1017.1
20260510161503 13 33 8.0 14.5 0.00 0.00 0.00 47 1017.1
20260510161003 13 27 9.7 19.3 0.00 0.00 0.00 45 1017.2
20260510160714 13 29 9.7 19.3 0.00 0.00 0.00 45 1017.3
20260510160004 13 32 11.3 20.9 0.00 0.00 0.00 46 1017.4
20260510155503 13 34 12.9 22.5 0.00 0.00 0.00 44 1017.5
20260510155003 13 39 12.9 24.1 0.00 0.00 0.00 44 1017.4
20260510154504 13 42 12.9 27.4 0.00 0.00 0.00 45 1017.5
20260510154004 14 45 9.7 27.4 0.00 0.00 0.00 45 1017.5
20260510153503 14 40 9.7 25.7 0.00 0.00 0.00 44 1017.5
20260510153003 14 33 9.7 19.3 0.00 0.00 0.00 44 1017.5
20260510152713 14 33 9.7 19.3 0.00 0.00 0.00 46 1017.6
20260510152216 15 30 12.9 25.7 0.00 0.00 0.00 44 1017.6
20260510151503 15 33 11.3 25.7 0.00 0.00 0.00 43 1017.7
20260510151003 15 38 11.3 22.5 0.00 0.00 0.00 42 1017.7
20260510150504 15 39 11.3 24.1 0.00 0.00 0.00 41 1017.7
20260510150218 15 39 11.3 24.1 0.00 0.00 0.00 41 1017.7
20260510145503 15 44 11.3 25.7 0.00 0.00 0.00 43 1017.8
20260510145004 15 37 12.9 29.0 0.00 0.00 0.00 42 1018.1
20260510144503 16 41 12.9 29.0 0.00 0.00 0.00 41 1018.1
20260510144004 16 53 11.3 29.0 0.00 0.00 0.00 40 1018.0
20260510143504 16 53 12.9 29.0 0.00 0.00 0.00 39 1018.1
20260510143004 16 37 12.9 24.1 0.00 0.00 0.00 40 1018.2
20260510142713 16 29 12.9 24.1 0.00 0.00 0.00 40 1018.3
20260510142003 16 36 11.3 24.1 0.00 0.00 0.00 40 1018.2
20260510141503 15 37 14.5 24.1 0.00 0.00 0.00 41 1018.4
20260510141003 16 33 12.9 24.1 0.00 0.00 0.00 40 1018.4
20260510140715 16 41 11.3 24.1 0.00 0.00 0.00 41 1018.3
20260510140004 16 55 12.9 24.1 0.00 0.00 0.00 39 1018.5
20260510135503 16 49 12.9 30.6 0.00 0.00 0.00 40 1018.5
20260510135003 16 38 12.9 30.6 0.00 0.00 0.00 41 1018.6
20260510134503 16 32 11.3 22.5 0.00 0.00 0.00 40 1018.5
20260510134215 16 30 11.3 19.3 0.00 0.00 0.00 41 1018.5
20260510133504 16 28 11.3 22.5 0.00 0.00 0.00 42 1018.6
20260510133003 16 31 12.9 25.7 0.00 0.00 0.00 41 1018.7
20260510132504 16 35 12.9 25.7 0.00 0.00 0.00 40 1018.7
20260510132003 16 43 11.3 24.1 0.00 0.00 0.00 41 1018.7
20260510131503 16 49 11.3 20.9 0.00 0.00 0.00 41 1018.8
20260510131004 16 41 12.9 24.1 0.00 0.00 0.00 41 1018.9
20260510130504 16 34 11.3 27.4 0.00 0.00 0.00 42 1018.8
20260510130003 16 38 12.9 27.4 0.00 0.00 0.00 42 1019.0
20260510125504 15 41 14.5 25.7 0.00 0.00 0.00 44 1019.0
20260510125003 15 38 14.5 25.7 0.00 0.00 0.00 44 1019.1
20260510124713 15 32 12.9 24.1 0.00 0.00 0.00 45 1019.1
20260510124003 15 29 11.3 20.9 0.00 0.00 0.00 43 1019.1
20260510123503 15 40 11.3 22.5 0.00 0.00 0.00 45 1019.2
20260510123004 15 48 12.9 25.7 0.00 0.00 0.00 43 1019.3
20260510122504 16 55 12.9 25.7 0.00 0.00 0.00 43 1019.3
20260510122004 16 47 12.9 25.7 0.00 0.00 0.00 45 1019.3
20260510121716 16 43 12.9 25.7 0.00 0.00 0.00 44 1019.3
20260510121003 16 27 14.5 24.1 0.00 0.00 0.00 46 1019.4
20260510120717 16 29 16.1 29.0 0.00 0.00 0.00 46 1019.4
20260510120214 16 40 16.1 35.4 0.00 0.00 0.00 46 1019.5
20260510115503 16 24 12.9 29.0 0.00 0.00 0.00 47 1019.5
20260510115004 16 36 14.5 25.7 0.00 0.00 0.00 43 1019.6
20260510114504 15 49 12.9 25.7 0.00 0.00 0.00 46 1019.6
20260510114217 15 49 12.9 25.7 0.00 0.00 0.00 47 1019.6
20260510113503 15 34 12.9 25.7 0.00 0.00 0.00 47 1019.7
20260510113003 15 29 11.3 24.1 0.00 0.00 0.00 46 1019.8
20260510112504 15 29 11.3 24.1 0.00 0.00 0.00 45 1019.8
20260510112213 15 34 11.3 22.5 0.00 0.00 0.00 47 1019.9
20260510111504 15 41 12.9 20.9 0.00 0.00 0.00 45 1020.0
20260510111004 16 52 12.9 24.1 0.00 0.00 0.00 46 1020.0
20260510110503 16 55 12.9 27.4 0.00 0.00 0.00 46 1020.0
20260510110003 15 51 14.5 27.4 0.00 0.00 0.00 49 1020.0
20260510105504 15 52 12.9 27.4 0.00 0.00 0.00 46 1020.1
20260510105004 15 46 12.9 29.0 0.00 0.00 0.00 47 1020.3
20260510104714 15 42 12.9 29.0 0.00 0.00 0.00 50 1020.3
20260510104004 14 37 12.9 22.5 0.00 0.00 0.00 51 1020.4
20260510103504 15 37 14.5 25.7 0.00 0.00 0.00 46 1020.4
20260510103004 15 45 14.5 25.7 0.00 0.00 0.00 47 1020.4
20260510102504 15 47 14.5 25.7 0.00 0.00 0.00 49 1020.5
20260510102214 14 42 14.5 25.7 0.00 0.00 0.00 51 1020.5
20260510101504 14 39 14.5 27.4 0.00 0.00 0.00 52 1020.5
20260510101004 13 39 12.9 25.7 0.00 0.00 0.00 54 1020.6
20260510100504 13 43 12.9 24.1 0.00 0.00 0.00 54 1020.6
20260510100004 13 44 14.5 25.7 0.00 0.00 0.00 52 1020.7
20260510095504 13 46 14.5 33.8 0.00 0.00 0.00 53 1020.8
20260510095004 12 40 14.5 33.8 0.00 0.00 0.00 56 1020.8
20260510094504 12 35 12.9 25.7 0.00 0.00 0.00 56 1020.8
20260510094218 13 42 14.5 27.4 0.00 0.00 0.00 57 1020.8
20260510093504 13 50 14.5 27.4 0.00 0.00 0.00 55 1020.9
20260510093004 12 45 12.9 22.5 0.00 0.00 0.00 60 1021.0
20260510092504 12 38 12.9 24.1 0.00 0.00 0.00 61 1021.0
20260510092003 12 47 14.5 25.7 0.00 0.00 0.00 61 1020.9
20260510091503 12 54 12.9 25.7 0.00 0.00 0.00 60 1021.0
20260510091003 12 51 12.9 22.5 0.00 0.00 0.00 62 1021.1
20260510090504 12 42 14.5 25.7 0.00 0.00 0.00 62 1021.1
20260510090004 12 36 14.5 29.0 0.00 0.00 0.00 61 1021.2
20260510085504 12 33 11.3 29.0 0.00 0.00 0.00 62 1021.2
20260510085004 12 34 12.9 27.4 0.00 0.00 0.00 61 1021.2
20260510084504 12 33 12.9 27.4 0.00 0.00 0.00 62 1021.2
20260510084003 12 39 11.3 22.5 0.00 0.00 0.00 64 1021.2
20260510083716 12 44 11.3 22.5 0.00 0.00 0.00 66 1021.2
20260510083003 11 40 12.9 22.5 0.00 0.00 0.00 67 1021.2
20260510082504 11 36 12.9 22.5 0.00 0.00 0.00 67 1021.2
20260510082215 11 37 11.3 22.5 0.00 0.00 0.00 66 1021.2
20260510081718 11 32 11.3 20.9 0.00 0.00 0.00 69 1021.1
20260510081005 11 35 12.9 27.4 0.00 0.00 0.00 68 1021.2
20260510080504 11 36 14.5 27.4 0.00 0.00 0.00 68 1021.2
20260510080004 11 32 12.9 27.4 0.00 0.00 0.00 70 1021.1
20260510075503 11 32 11.3 24.1 0.00 0.00 0.00 71 1021.1
20260510075003 10 32 11.3 20.9 0.00 0.00 0.00 73 1021.1
20260510074503 10 35 12.9 22.5 0.00 0.00 0.00 74 1021.1
20260510074004 10 29 12.9 22.5 0.00 0.00 0.00 74 1021.1
20260510073503 10 26 11.3 22.5 0.00 0.00 0.00 75 1021.2
20260510073003 10 31 12.9 25.7 0.00 0.00 0.00 76 1021.2
20260510072503 10 28 11.3 25.7 0.00 0.00 0.00 76 1021.2
20260510072003 10 29 9.7 22.5 0.00 0.00 0.00 78 1021.2
20260510071714 9 27 9.7 22.5 0.00 0.00 0.00 77 1021.1
20260510071003 9 21 11.3 19.3 0.00 0.00 0.00 78 1021.1
20260510070504 10 18 11.3 20.9 0.00 0.00 0.00 77 1021.1
20260510070004 10 19 9.7 20.9 0.00 0.00 0.00 76 1021.1
20260510065504 10 27 9.7 17.7 0.00 0.00 0.00 77 1021.1
20260510065003 10 29 9.7 20.9 0.00 0.00 0.00 77 1021.1
20260510064504 10 31 11.3 20.9 0.00 0.00 0.00 78 1021.0
20260510064004 10 29 9.7 20.9 0.00 0.00 0.00 79 1021.1
20260510063504 9 32 11.3 20.9 0.00 0.00 0.00 80 1021.1
20260510063003 9 29 11.3 22.5 0.00 0.00 0.00 81 1021.1
20260510062503 8 23 11.3 22.5 0.00 0.00 0.00 82 1021.0
20260510062003 8 28 9.7 22.5 0.00 0.00 0.00 83 1021.0
20260510061504 8 29 9.7 17.7 0.00 0.00 0.00 83 1021.0
20260510061003 8 23 8.0 20.9 0.00 0.00 0.00 84 1021.0
20260510060503 7 18 11.3 20.9 0.00 0.00 0.00 84 1021.0
20260510060213 7 15 11.3 20.9 0.00 0.00 0.00 84 1021.0
20260510055503 7 13 11.3 20.9 0.00 0.00 0.00 84 1021.0
20260510055003 7 17 9.7 20.9 0.00 0.00 0.00 84 1021.0
20260510054503 7 16 8.0 19.3 0.00 0.00 0.00 84 1021.0
20260510054003 7 12 9.7 16.1 0.00 0.00 0.00 84 1020.9
20260510053718 7 14 9.7 16.1 0.00 0.00 0.00 83 1021.0
20260510053003 7 13 8.0 16.1 0.00 0.00 0.00 82 1021.1
20260510052503 8 14 9.7 22.5 0.00 0.00 0.00 83 1021.0
20260510052004 8 9 11.3 22.5 0.00 0.00 0.00 82 1021.0
20260510051504 8 8 12.9 24.1 0.00 0.00 0.00 82 1021.0
20260510051004 8 12 11.3 24.1 0.00 0.00 0.00 81 1020.9
20260510050504 8 16 8.0 20.9 0.00 0.00 0.00 81 1020.9
20260510050004 8 23 9.7 19.3 0.00 0.00 0.00 80 1021.0
20260510045503 8 27 12.9 19.3 0.00 0.00 0.00 80 1020.9
20260510045215 8 25 11.3 19.3 0.00 0.00 0.00 80 1021.0
20260510044718 8 25 11.3 22.5 0.00 0.00 0.00 80 1021.0
20260510044003 8 20 12.9 25.7 0.00 0.00 0.00 81 1021.0
20260510043503 8 17 12.9 25.7 0.00 0.00 0.00 81 1020.9
20260510043004 8 20 11.3 20.9 0.00 0.00 0.00 82 1020.9
20260510042503 8 21 11.3 22.5 0.00 0.00 0.00 82 1020.8
20260510042213 8 23 12.9 22.5 0.00 0.00 0.00 82 1020.8
20260510041503 8 29 11.3 19.3 0.00 0.00 0.00 82 1020.8
20260510041003 8 26 9.7 19.3 0.00 0.00 0.00 82 1020.9
20260510040717 8 29 9.7 22.5 0.00 0.00 0.00 82 1020.9
20260510040003 8 32 8.0 22.5 0.00 0.00 0.00 82 1020.9
20260510035504 8 27 8.0 16.1 0.00 0.00 0.00 82 1021.0
20260510035003 8 29 8.0 17.7 0.00 0.00 0.00 82 1021.1
20260510034504 8 26 9.7 22.5 0.00 0.00 0.00 82 1021.2
20260510034004 8 28 12.9 22.5 0.00 0.00 0.00 82 1021.2
20260510033503 8 29 12.9 20.9 0.00 0.00 0.00 83 1021.2
20260510033003 8 23 9.7 24.1 0.00 0.00 0.00 83 1021.2
20260510032503 8 23 9.7 24.1 0.00 0.00 0.00 83 1021.2
20260510032004 8 27 9.7 19.3 0.00 0.00 0.00 83 1021.3
20260510031504 8 30 9.7 19.3 0.00 0.00 0.00 83 1021.3
20260510031004 8 24 9.7 20.9 0.00 0.00 0.00 83 1021.4
20260510030503 8 19 11.3 20.9 0.00 0.00 0.00 83 1021.3
20260510030003 8 18 11.3 20.9 0.00 0.00 0.00 83 1021.4
20260510025713 8 18 11.3 22.5 0.00 0.00 0.00 83 1021.4
20260510025003 8 15 11.3 24.1 0.00 0.00 0.00 83 1021.3
20260510024504 8 19 8.0 20.9 0.00 0.00 0.00 83 1021.3
20260510024217 8 20 8.0 17.7 0.00 0.00 0.00 84 1021.4
20260510023503 8 17 9.7 20.9 0.00 0.00 0.00 83 1021.4
20260510023004 9 16 11.3 22.5 0.00 0.00 0.00 83 1021.4
20260510022503 9 15 11.3 24.1 0.00 0.00 0.00 83 1021.3
20260510022003 9 16 11.3 24.1 0.00 0.00 0.00 83 1021.3
20260510021503 9 18 11.3 24.1 0.00 0.00 0.00 83 1021.1
20260510021003 9 15 11.3 22.5 0.00 0.00 0.00 83 1021.0
20260510020503 9 12 12.9 29.0 0.00 0.00 0.00 84 1021.1
20260510020003 9 11 14.5 29.0 0.00 0.00 0.00 83 1021.1
20260510015504 9 10 14.5 27.4 0.00 0.00 0.00 84 1021.0
20260510015003 9 13 12.9 27.4 0.00 0.00 0.00 84 1021.0
20260510014503 9 20 11.3 25.7 0.00 0.00 0.00 85 1021.1
20260510014003 9 20 12.9 22.5 0.00 0.00 0.00 85 1021.0
20260510013503 9 20 12.9 24.1 0.00 0.00 0.00 85 1021.0
20260510013003 9 21 11.3 24.1 0.00 0.00 0.00 85 1021.1
20260510012503 9 20 9.7 22.5 0.00 0.00 0.00 86 1021.0
20260510012214 9 21 9.7 22.5 0.00 0.00 0.00 86 1021.1
20260510011504 9 23 11.3 22.5 0.00 0.00 0.00 86 1021.1
20260510011004 9 28 11.3 20.9 0.00 0.00 0.00 86 1021.1
20260510010503 9 30 11.3 24.1 0.00 0.00 0.00 86 1021.0
20260510010004 9 24 11.3 24.1 0.00 0.00 0.00 86 1021.1
20260510005714 9 23 11.3 24.1 0.00 0.00 0.00 86 1021.1
20260510005003 9 23 11.3 22.5 0.00 0.00 0.00 86 1021.1
20260510004715 9 24 9.7 22.5 0.00 0.00 0.00 86 1021.1
20260510004003 9 18 9.7 20.9 0.00 0.00 0.00 87 1021.1
20260510003504 9 15 9.7 20.9 0.00 0.00 0.00 87 1021.2
20260510003214 9 16 9.7 20.9 0.00 0.00 0.00 87 1021.2
20260510002717 9 13 11.3 20.9 0.00 0.00 0.00 87 1021.3
20260510002003 10 13 12.9 25.7 0.00 0.00 0.00 87 1021.3
20260510001504 10 12 12.9 25.7 0.00 0.00 0.00 87 1021.3
20260510001004 10 12 12.9 22.5 0.00 0.00 0.00 87 1021.3
20260510000503 10 13 12.9 27.4 0.00 0.00 0.00 87 1021.4
20260510000218 10 14 12.9 27.4 0.00 0.00 0.00 87 1021.4
20260509235715 10 15 14.5 22.5 0.00 0.00 0.00 87 1021.4
20260509235004 10 10 12.9 24.1 0.00 0.00 0.00 86 1021.3
20260509234503 10 11 12.9 24.1 0.00 0.00 0.00 86 1021.4
20260509234004 10 13 11.3 22.5 0.00 0.00 0.00 86 1021.4
20260509233504 10 14 11.3 20.9 0.00 0.00 0.00 86 1021.4
20260509233004 10 11 11.3 22.5 0.00 0.00 0.00 86 1021.4
20260509232503 10 16 11.3 22.5 0.00 0.00 0.00 86 1021.4
20260509232003 10 28 9.7 19.3 0.00 0.00 0.00 86 1021.4
20260509231503 10 27 12.9 27.4 0.00 0.00 0.00 86 1021.3
20260509231003 10 17 16.1 29.0 0.00 0.00 0.00 85 1021.3
20260509230503 10 13 16.1 29.0 0.00 0.00 0.00 85 1021.4
20260509230006 10 15 14.5 29.0 0.00 0.00 0.00 85 1021.3
20260509225503 10 16 11.3 25.7 0.00 0.00 0.00 85 1021.2
20260509225004 10 21 14.5 29.0 0.00 0.00 0.00 85 1021.2
20260509224503 10 20 14.5 29.0 0.00 0.00 0.00 85 1021.1
20260509224004 10 19 11.3 22.5 0.00 0.00 0.00 85 1021.1
20260509223504 10 17 12.9 24.1 0.00 0.00 0.00 85 1021.0
20260509223004 10 18 12.9 24.1 0.00 0.00 0.00 85 1021.0
20260509222504 10 19 12.9 20.9 0.00 0.00 0.00 85 1021.0
20260509222003 10 18 12.9 25.7 0.00 0.00 0.00 85 1020.9
20260509221714 10 19 12.9 25.7 0.00 0.00 0.00 85 1021.0
20260509221003 10 15 12.9 22.5 0.00 0.00 0.00 85 1021.0
20260509220504 10 12 11.3 19.3 0.00 0.00 0.00 86 1021.1
20260509220004 10 7 11.3 22.5 0.00 0.00 0.00 86 1021.1
20260509215503 10 8 11.3 22.5 0.00 0.00 0.00 86 1021.1
20260509215004 10 11 11.3 22.5 0.00 0.00 0.00 86 1020.9
20260509214504 10 12 11.3 20.9 0.00 0.00 0.00 86 1020.9
20260509214003 10 14 11.3 24.1 0.00 0.00 0.00 86 1020.9
20260509213503 10 13 12.9 24.1 0.00 0.00 0.00 86 1020.9
20260509213003 10 15 14.5 27.4 0.00 0.00 0.00 87 1020.9
20260509212503 10 17 14.5 27.4 0.00 0.00 0.00 87 1020.9
20260509212217 10 17 12.9 27.4 0.00 0.00 0.00 87 1020.8